266  
ASUS41 KALY 231910  
RWRALY  
 
NEW YORK STATE HOURLY WEATHER ROUNDUP  
NATIONAL WEATHER SERVICE ALBANY NY  
300 PM EDT SAT JUN 23 2018  
 
NOTE: "FAIR" INDICATES FEW OR NO CLOUDS BELOW 12,000 FEET WITH NO  
SIGNIFICANT WEATHER AND/OR NO S TO VISIBILITY
.  
 
NYZ032-033-038>043-046>054-057>066-NYZ062>081-082-084-232000-  
EAST  
 
 
CITY SKY/WX TMP DP RH WIND PRES REMARKS
 
ALBANY CLOUDY 59 54 83 N5 29.89S  
GLENS FALLS LGT RAIN 56 56 100 S5 29.89S FOG  
POUGHKEEPSIE CLOUDY 65 57 75 NE6 29.84F  
NEWBURGH CLOUDY 66 59 77 CALM 29.86F  
MONTGOMERY CLOUDY 68 55 63 N6 29.84F  
WHITE PLAINS PTSUNNY 64 59 83 NE7 29.84F  
ISLIP CLOUDY 64 62 93 NE9 29.83F  
NEW YORK CITY CLOUDY 64 59 83 NE13 29.84F  
CENTRAL PARK CLOUDY 64 60 87 VRB5 29.87F  

 
 
NYZ005>009-017-018-044>046-055-056-232000-  
CENTRAL  
 
 
CITY SKY/WX TMP DP RH WIND PRES REMARKS
 
FULTON CLOUDY 71 58 63 VRB7 29.77F  
SYRACUSE CLOUDY 68 63 84 E9 29.77F  
ROME CLOUDY 63 56 78 SE13G24 29.84F  
ELMIRA CLOUDY 72 64 76 S8 29.77F  
BINGHAMTON CLOUDY 64 58 80 SE8 29.81F  
MONTICELLO CLOUDY 59 54 83 VRB6 29.87F  

 
 
NYZ026>034-041>043-087-232000-  
NORTH  
 
 
CITY SKY/WX TMP DP RH WIND PRES REMARKS
 
WATERTOWN CLOUDY 65 61 87 E6 29.77F  
FORT DRUM NOT AVBL  
OGDENSBURG DRIZZLE 64 61 89 CALM 29.81F  
MASSENA LGT RAIN 66 58 75 S7 29.83F  
SARANAC LAKE LGT RAIN 58 56 93 S3 29.84F  
PLATTSBURGH LGT RAIN 66 54 65 S3 29.85F  

 
 
NYZ001>004-010>016-019>021-085-232000-  
WEST  
 
 
CITY SKY/WX TMP DP RH WIND PRES REMARKS
 
NIAGARA FALLS CLOUDY 73 63 70 CALM 29.72F  
BUFFALO CLOUDY 70 65 84 CALM 29.73F  
DUNKIRK CLOUDY 73 64 73 N6 29.72S  
JAMESTOWN CLOUDY 70 63 78 S3 29.76F  
WELLSVILLE LGT RAIN 69 63 81 S6 29.80F  
ROCHESTER CLOUDY 74 64 71 SW8 29.74S  
PENN YAN CLOUDY 72 63 73 S10 29.76F  

 
 
KEY  
WCI = WIND CHILL INDEX  
VSB = VISIBILITY  
HX = HEAT INDEX  

 
 
 
CLICK HERE TO GO TO PREVIOUS BULLETINS.

The Nexlab NY Page
The Nexlab VT Page
The Nexlab MA Page
The Nexlab CT Page Main Text Page